Satellite: OKEAN-4
Catalog number: 23317
Epoch time: 09084.68632818
Element set: 0864
Inclination: 082.5370 deg
RA of node: 052.4022 deg
Eccentricity: 0.0020525
Arg of perigee: 281.5477 deg
Mean anomaly: 078.3460 deg
Mean motion: 14.82683744 rev/day
Decay rate: 2.77e-06 rev/day^2
Epoch rev: 77999
Checksum: 331
Satellite: NOAA-14
Catalog number: 23455
Epoch time: 09085.43746391
Element set: 560
Inclination: 098.9136 deg
RA of node: 163.3937 deg
Eccentricity: 0.0010279
Arg of perigee: 068.4178 deg
Mean anomaly: 291.8095 deg
Mean motion: 14.13758444 rev/day
Decay rate: -2.63e-06 rev/day^2
Epoch rev: 73423
Checksum: 331
Satellite: NOAA-15
Catalog number: 25338
Epoch time: 09085.39545794
Element set: 866
Inclination: 098.5804 deg
RA of node: 076.4367 deg
Eccentricity: 0.0009745
Arg of perigee: 302.3458 deg
Mean anomaly: 057.6787 deg
Mean motion: 14.24750880 rev/day
Decay rate: -2.0e-07 rev/day^2
Epoch rev: 56498
Checksum: 357
Satellite: RESURS
Catalog number: 25394
Epoch time: 09084.90694049
Element set: 173
Inclination: 098.3515 deg
RA of node: 121.4599 deg
Eccentricity: 0.0002374
Arg of perigee: 085.4781 deg
Mean anomaly: 274.6669 deg
Mean motion: 14.24180858 rev/day
Decay rate: -2.4e-07 rev/day^2
Epoch rev: 55654
Checksum: 330
Satellite: FENGYUN1
Catalog number: 25730
Epoch time: 09084.92344324
Element set: 0733
Inclination: 098.7505 deg
RA of node: 057.5940 deg
Eccentricity: 0.0023090
Arg of perigee: 093.5447 deg
Mean anomaly: 266.8363 deg
Mean motion: 14.07949128 rev/day
Decay rate: 2.43e-06 rev/day^2
Epoch rev: 50860
Checksum: 309
Satellite: OKEAN-0
Catalog number: 25860
Epoch time: 09085.46494778
Element set: 633
Inclination: 097.7796 deg
RA of node: 069.9637 deg
Eccentricity: 0.0001836
Arg of perigee: 082.0970 deg
Mean anomaly: 278.0458 deg
Mean motion: 14.73564305 rev/day
Decay rate: 4.4e-07 rev/day^2
Epoch rev: 52096
Checksum: 346
Satellite: NOAA-16
Catalog number: 26536
Epoch time: 09085.34498960
Element set: 340
Inclination: 099.1766 deg
RA of node: 087.0091 deg
Eccentricity: 0.0011079
Arg of perigee: 150.4928 deg
Mean anomaly: 209.6905 deg
Mean motion: 14.12514137 rev/day
Decay rate: 2.25e-06 rev/day^2
Epoch rev: 43860
Checksum: 311
Satellite: NOAA-17
Catalog number: 27453
Epoch time: 09085.44303338
Element set: 349
Inclination: 098.4934 deg
RA of node: 147.3315 deg
Eccentricity: 0.0011797
Arg of perigee: 010.5042 deg
Mean anomaly: 349.6376 deg
Mean motion: 14.24049937 rev/day
Decay rate: -5.2e-07 rev/day^2
Epoch rev: 35097
Checksum: 317
Satellite: NOAA-18
Catalog number: 28654
Epoch time: 09085.45052694
Element set: 841
Inclination: 098.9008 deg
RA of node: 029.3589 deg
Eccentricity: 0.0013567
Arg of perigee: 235.2204 deg
Mean anomaly: 124.7669 deg
Mean motion: 14.11244910 rev/day
Decay rate: 1.39e-06 rev/day^2
Epoch rev: 19828
Checksum: 327
Satellite: NOAA-19
Catalog number: 33591
Epoch time: 09084.84551227
Element set: 0049
Inclination: 098.7389 deg
RA of node: 032.8058 deg
Eccentricity: 0.0015006
Arg of perigee: 118.0524 deg
Mean anomaly: 242.2183 deg
Mean motion: 14.10943845 rev/day
Decay rate: 1.58e-06 rev/day^2
Epoch rev: 00668
Checksum: 307
/EX
SB KEPS @ AMSAT $ORB09085.M
Orbital Elements 09085.MISC
HR AMSAT ORBITAL ELEMENTS FOR MANNED AND MISCELLANEOUS SATELLITES
FROM WA5QGD FORT WORTH,TX March 26, 2009
Send Subscribe/unsubscribe to KEPS at
http://www.amsat.org/mailman/listinfo/keps
BID: ORB09085.M
TO ALL RADIO AMATEURS BT
Satellite: HUBBLE
Catalog number: 20580
Epoch time: 09084.91019386
Element set: 355
Inclination: 028.4703 deg
RA of node: 285.6516 deg
Eccentricity: 0.0003922
Arg of perigee: 142.8050 deg
Mean anomaly: 217.2803 deg
Mean motion: 15.00467226 rev/day
Decay rate: 3.26e-06 rev/day^2
Epoch rev: 83733
Checksum: 279
Satellite: PO-34
Catalog number: 25520
Epoch time: 09084.39438283
Element set: 212
Inclination: 028.4599 deg
RA of node: 095.9597 deg
Eccentricity: 0.0005353
Arg of perigee: 113.8619 deg
Mean anomaly: 246.2543 deg
Mean motion: 15.17312203 rev/day
Decay rate: 3.54e-06 rev/day^2
Epoch rev: 57591
Checksum: 313
Satellite: ISS
Catalog number: 25544
Epoch time: 09085.49883102
Element set: 543
Inclination: 051.6423 deg
RA of node: 010.6523 deg
Eccentricity: 0.0009893
Arg of perigee: 155.1044 deg
Mean anomaly: 201.9664 deg
Mean motion: 15.71652088 rev/day
Decay rate: 2.3148e-04 rev/day^2
Epoch rev: 59293
Checksum: 300
Satellite: CO-58
Catalog number: 28895
Epoch time: 09084.71318451
Element set: 0265
Inclination: 098.0710 deg
RA of node: 337.6223 deg
Eccentricity: 0.0016867
Arg of perigee: 247.1655 deg
Mean anomaly: 112.7763 deg
Mean motion: 14.59751294 rev/day
Decay rate: -4.9e-07 rev/day^2
Epoch rev: 18155
Checksum: 337
Satellite: FALCON
Catalog number: 30776
Epoch time: 09085.54192816
Element set: 532
Inclination: 035.4336 deg
RA of node: 240.8184 deg
Eccentricity: 0.0002184
Arg of perigee: 301.7300 deg
Mean anomaly: 058.3206 deg
Mean motion: 15.03197939 rev/day
Decay rate: 3.89e-06 rev/day^2
Epoch rev: 11265
Checksum: 286
Satellite: MAST
Catalog number: 31126
Epoch time: 09084.66865244
Element set: 0558
Inclination: 097.9986 deg
RA of node: 143.2628 deg
Eccentricity: 0.0094911
Arg of perigee: 178.4659 deg
Mean anomaly: 181.6867 deg
Mean motion: 14.53484747 rev/day
Decay rate: 9.0e-08 rev/day^2
Epoch rev: 10290
Checksum: 347
Satellite: CAPE1
Catalog number: 31130
Epoch time: 09085.45168551
Element set: 560
Inclination: 097.9979 deg
RA of node: 142.3790 deg
Eccentricity: 0.0103041
Arg of perigee: 180.8873 deg
Mean anomaly: 179.2165 deg
Mean motion: 14.52042869 rev/day
Decay rate: 1.49e-06 rev/day^2
Epoch rev: 10268
Checksum: 309
Satellite: COMPASS
Catalog number: 32787
Epoch time: 09084.35700738
Element set: 0314
Inclination: 097.9521 deg
RA of node: 148.8602 deg
Eccentricity: 0.0014670
Arg of perigee: 306.8295 deg
Mean anomaly: 053.1574 deg
Mean motion: 14.81568273 rev/day
Decay rate: 5.19e-06 rev/day^2
Epoch rev: 04903
Checksum: 312
Satellite: AAUSAT2
Catalog number: 32788
Epoch time: 09084.60191362
Element set: 314
Inclination: 097.9504 deg
RA of node: 149.1470 deg
Eccentricity: 0.0014811
Arg of perigee: 309.4243 deg
Mean anomaly: 050.5687 deg
Mean motion: 14.81687809 rev/day
Decay rate: 3.58e-06 rev/day^2
Epoch rev: 4907
Checksum: 315
Satellite: DO-64
Catalog number: 32789
Epoch time: 09084.68954227
Element set: 0326
Inclination: 097.9563 deg
RA of node: 149.3493 deg
Eccentricity: 0.0014628
Arg of perigee: 305.6590 deg
Mean anomaly: 054.3246 deg
Mean motion: 14.81646846 rev/day
Decay rate: 6.05e-06 rev/day^2
Epoch rev: 04908
Checksum: 349
Satellite: CO-66
Catalog number: 32791
Epoch time: 09084.45794008
Element set: 0307
Inclination: 097.9545 deg
RA of node: 148.9921 deg
Eccentricity: 0.0015308
Arg of perigee: 306.1302 deg
Mean anomaly: 053.8498 deg
Mean motion: 14.81402948 rev/day
Decay rate: 9.1e-07 rev/day^2
Epoch rev: 04901
Checksum: 320
Satellite: RS-30
Catalog number: 32953
Epoch time: 09084.72196569
Element set: 264
Inclination: 082.5027 deg
RA of node: 308.5291 deg
Eccentricity: 0.0019612
Arg of perigee: 003.4929 deg
Mean anomaly: 356.6285 deg
Mean motion: 12.43000132 rev/day
Decay rate: 1.0e-07 rev/day^2
Epoch rev: 3802
Checksum: 277
/EX
More information about the Keps
mailing list